TimeEST,TemperatureF,Dew PointF,Humidity,Sea Level PressureIn,VisibilityMPH,Wind Direction,Wind SpeedMPH,Gust SpeedMPH,PrecipitationIn,Events,Conditions,WindDirDegrees,DateUTC
12:53 AM,39.0,30.9,73,30.39,10.0,Calm,Calm,-,N/A,,Clear,0,2012-11-30 05:53:00
1:53 AM,37.9,32.0,79,30.38,9.0,Calm,Calm,-,N/A,,Clear,0,2012-11-30 06:53:00
2:53 AM,39.0,32.0,76,30.38,10.0,Calm,Calm,-,N/A,,Mostly Cloudy,0,2012-11-30 07:53:00
3:45 AM,37.4,30.2,75,30.38,10.0,Calm,Calm,-,N/A,,Scattered Clouds,0,2012-11-30 08:45:00
3:53 AM,37.9,30.9,76,30.38,10.0,Calm,Calm,-,N/A,,Mostly Cloudy,0,2012-11-30 08:53:00
4:53 AM,39.0,34.0,82,30.37,10.0,Calm,Calm,-,N/A,,Overcast,0,2012-11-30 09:53:00
5:53 AM,37.9,33.1,83,30.38,9.0,Calm,Calm,-,N/A,,Scattered Clouds,0,2012-11-30 10:53:00
6:53 AM,39.0,32.0,76,30.39,10.0,Calm,Calm,-,N/A,,Scattered Clouds,0,2012-11-30 11:53:00
7:53 AM,39.0,32.0,76,30.38,9.0,Calm,Calm,-,N/A,,Scattered Clouds,0,2012-11-30 12:53:00
8:53 AM,43.0,34.0,71,30.39,9.0,Calm,Calm,-,N/A,,Overcast,0,2012-11-30 13:53:00
9:53 AM,46.0,35.1,66,30.41,10.0,Calm,Calm,-,N/A,,Overcast,0,2012-11-30 14:53:00
10:53 AM,51.1,35.1,54,30.40,10.0,Calm,Calm,-,N/A,,Overcast,0,2012-11-30 15:53:00
11:53 AM,55.0,37.9,53,30.37,10.0,Calm,Calm,-,N/A,,Overcast,0,2012-11-30 16:53:00
12:53 PM,57.9,41.0,53,30.34,10.0,Calm,Calm,-,N/A,,Overcast,0,2012-11-30 17:53:00
1:53 PM,60.1,42.1,51,30.31,10.0,Variable,4.6,-,N/A,,Overcast,0,2012-11-30 18:53:00
2:53 PM,60.1,42.1,51,30.30,10.0,West,5.8,-,N/A,,Overcast,260,2012-11-30 19:53:00
3:53 PM,60.1,42.1,51,30.30,10.0,West,4.6,-,N/A,,Overcast,280,2012-11-30 20:53:00
4:53 PM,57.9,43.0,58,30.30,10.0,Calm,Calm,-,N/A,,Overcast,0,2012-11-30 21:53:00
5:53 PM,55.9,43.0,62,30.30,10.0,Calm,Calm,-,N/A,,Overcast,0,2012-11-30 22:53:00
8:53 PM,54.0,42.1,64,30.32,10.0,ESE,3.5,-,N/A,,Scattered Clouds,120,2012-12-01 01:53:00
9:53 PM,53.1,42.1,66,30.32,10.0,SSE,3.5,-,N/A,,Clear,150,2012-12-01 02:53:00
10:53 PM,53.1,42.1,66,30.32,10.0,SE,3.5,-,N/A,,Partly Cloudy,140,2012-12-01 03:53:00
11:53 PM,46.9,41.0,80,30.32,10.0,Calm,Calm,-,N/A,,Clear,0,2012-12-01 04:53:00